{"data":{"norad_id":48273,"epoch":"2026-05-25T04:53:21.756192Z","epoch_age_seconds":60604,"freshness":"FRESH","line1":"1 48273U 21034F   26145.20372403  .00115325  00000+0  15225-2 0  9996","line2":"2 48273  97.5654 230.5157 0001792 203.9638 156.1534 15.57983322278103","mean_motion":15.57983322,"eccentricity":0.0001792,"inclination_deg":97.5654,"raan_deg":230.5157,"arg_perigee_deg":203.9638,"mean_anomaly_deg":156.1534,"bstar":0.0015225,"rev_number":27810,"period_min":92.42717682956,"perigee_km":392.28084542463,"apogee_km":394.70779809035,"semimajor_km":6771.6313217575,"source":"CELESTRAK","updated_at":"2026-05-25T13:38:13.531768Z"}}